Burlington, VT

12:23 PM EST on November 13, 2019 (GMT -0500)
Burlington International

Weather History for KBTV - September, 2019

Change the Weather History Date:

Saturday, September 28, 2019

  Actual Average Record
Temperature  
Mean Temperature 69 °F 55 °F  
Max Temperature 75 °F 65 °F 83 °F (2014)
Min Temperature 63 °F 46 °F 26 °F (1947)
Degree Days  
Heating Degree Days 0 10  
Month to date heating degree days 80 153  
Since 1 July heating degree days 84 195  
Cooling Degree Days 4 0  
Month to date cooling degree days 26 41  
Year to date cooling degree days 606 489  
Growing Degree Days 18 (Base 50)    
Moisture  
Dew Point 56 °F    
Average Humidity 71    
Maximum Humidity 87    
Minimum Humidity 54    
Precipitation  
Precipitation 0.02 in 0.13 in 2.01 in (2003)
Month to date precipitation 3.71 3.39  
Year to date precipitation 30.00 27.46  
Snow  
Snow 0.00 in 0.00 in 0.00 in (2001)
Month to date snowfall 0.0 0.0  
Since 1 July snowfall 0.0 0.0  
Since 1 September snowfall 0.0 0.0  
Snow Depth 0.00 in    
Sea Level Pressure  
Sea Level Pressure 30.00 in    
Wind  
Wind Speed 10 mph (SSW)    
Max Wind Speed 22 mph    
Max Gust Speed 33 mph    
Visibility 10 miles    
Events Rain    
T = Trace of Precipitation, MM = Missing Value Source: NWS Daily Summary

Daily Weather History Graph

Daily Weather History Graph

Search for Another Location

Airport or City:

Astronomy

Sep. 28, 2019 Rise Set
Actual Time 6:46 AM EDT 6:39 PM EDT
Civil Twilight 6:17 AM EDT 7:08 PM EDT
Nautical Twilight 5:43 AM EDT 7:41 PM EDT
Astronomical Twilight 5:09 AM EDT 8:16 PM EDT
Moon 6:15 AM EDT (9/28) 7:05 PM EDT (9/28)
Length of Visible Light 12h 50m
Length of Day
11h 52m
Waning Crescent, 0% of the Moon is Illuminated
Sep 28
Waning Crescent
Sep 28
New
Oct 5
First Quarter
Oct 13
Full
Oct 21
Last Quarter

Hourly Weather History & Observations

Time (EDT) Temp. Dew Point Humidity Pressure Visibility Wind Dir Wind Speed Gust Speed Precip Events Conditions
12:54 AM 64.9 °F 48.9 °F 56% 30.01 in 10.0 mi South 8.1 mph 18.4 mph N/A   Overcast
1:54 AM 64.0 °F 48.9 °F 58% 30.00 in 10.0 mi South 11.5 mph - N/A   Overcast
2:54 AM 64.9 °F 48.0 °F 54% 29.99 in 10.0 mi South 10.4 mph 18.4 mph N/A   Overcast
3:54 AM 64.0 °F 46.9 °F 54% 29.98 in 10.0 mi South 9.2 mph - N/A   Mostly Cloudy
4:54 AM 64.0 °F 46.9 °F 54% 29.97 in 10.0 mi South 12.7 mph 24.2 mph N/A   Scattered Clouds
5:54 AM 64.0 °F 48.0 °F 56% 29.99 in 10.0 mi South 11.5 mph 21.9 mph N/A   Mostly Cloudy
6:54 AM 64.0 °F 48.9 °F 58% 29.99 in 10.0 mi South 15.0 mph 23.0 mph N/A   Mostly Cloudy
7:54 AM 64.0 °F 50.0 °F 60% 29.99 in 10.0 mi South 19.6 mph 28.8 mph N/A   Mostly Cloudy
8:54 AM 64.0 °F 51.1 °F 63% 29.99 in 10.0 mi South 15.0 mph 27.6 mph N/A   Overcast
9:54 AM 66.0 °F 53.1 °F 63% 29.99 in 10.0 mi SSW 11.5 mph 20.7 mph N/A   Mostly Cloudy
10:54 AM 68.0 °F 54.0 °F 61% 29.96 in 10.0 mi South 13.8 mph 21.9 mph N/A   Mostly Cloudy
11:54 AM 69.1 °F 55.9 °F 63% 29.94 in 10.0 mi South 10.4 mph 19.6 mph 0.00 in Rain Light Rain
12:54 PM 68.0 °F 59.0 °F 73% 29.96 in 10.0 mi SW 8.1 mph - 0.02 in   Overcast
1:54 PM 68.0 °F 60.1 °F 76% 29.95 in 10.0 mi SSW 4.6 mph - 0.00 in Rain Light Rain
2:54 PM 71.1 °F 61.0 °F 70% 29.95 in 10.0 mi South 6.9 mph - 0.00 in   Mostly Cloudy
3:54 PM 73.9 °F 61.0 °F 64% 29.94 in 10.0 mi South 8.1 mph - N/A   Overcast
4:54 PM 72.0 °F 63.0 °F 73% 29.96 in 10.0 mi Calm Calm - N/A   Overcast
5:54 PM 71.1 °F 63.0 °F 75% 29.97 in 10.0 mi SSW 3.5 mph - 0.00 in Rain Light Rain
6:54 PM 71.1 °F 63.0 °F 75% 29.99 in 10.0 mi Calm Calm - 0.00 in   Overcast
7:54 PM 70.0 °F 63.0 °F 78% 30.01 in 10.0 mi NW 3.5 mph - N/A   Overcast
8:44 PM 66.2 °F 62.6 °F 88% 30.05 in 10.0 mi NNW 15.0 mph 23.0 mph N/A   Overcast
8:54 PM 66.0 °F 62.1 °F 87% 30.05 in 10.0 mi North 10.4 mph - 0.00 in Rain Light Rain
9:03 PM 66.0 °F 62.1 °F 87% 30.05 in 8.0 mi North 11.5 mph - 0.00 in Rain Light Rain
9:23 PM 64.9 °F 61.0 °F 87% 30.07 in 6.0 mi North 10.4 mph - 0.00 in Rain Light Rain
9:50 PM 64.4 °F 60.8 °F 88% 30.08 in 10.0 mi NNW 12.7 mph - 0.00 in   Overcast
9:54 PM 64.0 °F 60.1 °F 87% 30.08 in 10.0 mi NNW 13.8 mph - 0.00 in   Overcast
10:54 PM 64.0 °F 59.0 °F 84% 30.11 in 10.0 mi NNW 11.5 mph - N/A   Overcast
11:54 PM 64.0 °F 57.9 °F 80% 30.13 in 10.0 mi NNW 13.8 mph - N/A   Overcast